Location: Berua Church
(35.0423°N, 88.5987°W)
Time: 14:08:56
(UTC+00:00)

SKYMED 3 - Pass Details

Date: 08 December 2019
Orbit: 621 x 623 km, 97.9° (Epoch: 24 January)

Event Time Altitude Azimuth Distance (km) Brightness Sun altitude
Exits shadow 23:45:14 - 16° (NNE) 2,610 7.4 -12.6°
Reaches altitude 10° 23:46:43 10° 18° (NNE) 1,998 6.8 -12.9°
Maximum altitude 23:51:03 65° 101° (E) 684 4.5 -13.7°
Drops below altitude 10° 23:55:20 10° 184° (S) 1,983 7.4 -14.6°
Sets 23:57:31 0° 187° (S) 2,885 8.3 -15.0°
